sat.trackr.live / text

‹ back to catalog

STARLINK-30506

NORAD 58072 · 2023-158X

PAYLOAD ACTIVE UNKNOWN

§ Identity

Operator
Country
US
Launch date
2023-10-13
Launch site
AFETR
Launch vehicle
Mass (kg)
RCS (m²)

Purposes: comms

External: N2YO · Heavens-Above · Gunter

§ Orbital elements

Epoch: 2026-05-24T20:02:48.643872Z

Period
94.27 min
Inclination
43.0013°
Eccentricity
0.0001256
Mean motion
15.27584034 rev/d
Perigee alt
482.2 km
Apogee alt
483.9 km
Semi-major
6,861.2 km
B*
2.6903e-4
RAAN
317.1627°
Arg perigee
271.0846°
Mean anomaly
88.9862°
Rev number
14,521

§ Raw data

STARLINK-305061 58072U 23158X   26144.83528523  .00007149  00000+0  26903-3 0  99972 58072  43.0013 317.1627 0001256 271.0846  88.9862 15.27584034145217

JSON: /api/v1/satellites/58072 · /tle

For live sub-satellite position, see the globe view (requires WebGL).

§ Visibility from observer

Set your observer location to see the next 7 days of passes ≥ 10°. The values pass through the URL so the page stays shareable.

No JS? Fill the form by hand. The geolocation button needs JavaScript.